カタログに戻る

CYGFM01

運用中気象VLEO
NORAD 41887·PAYLOAD·🇺🇸 United States

打ち上げ Dec 15, 2016 から Cape Canaveral Space Force Station

Loading…

次のパス (今後24時間)

TLE

最新Source: Space-Track

元期: Sep 14, 2026, 14:31 UTC

1 41887U 16078D   26257.60523751  .00025819  00000-0  29213-3 0  9996
2 41887  34.9401  27.0222 0005236 283.7403  76.2739 15.61397311542674

AllMySatでCYGFM01をリアルタイム追跡

Download on the App Store